User: anonymous   Login
Location: Deep South Regional Star Gaze
(30.9929°N, 90.9586°W)
Time: 12:10:15
(UTC-05:00)
Language:

H-2A R/B - Orbit

View from above orbital plane
View from above orbital plane
View from above satellite
View from above satellite

Ground track
Ground track

The orbit data is extracted from the following two-line orbital elements,

1 26899U 01038B   16177.18009584  .00000248  00000-0  15113-3 0  9991
2 26899  27.9515 210.1084 7116016 311.7093   6.3342  2.47143685127678
Epoch (UTC): 25 June 2016 04:19:20
Eccentricity: 0.7116016
inclination: 27.9515°
perigee height: 286 km
apogee height: 33174 km
right ascension of ascending node: 210.1084°
argument of perigee: 311.7093°
revolutions per day: 2.47143685
mean anomaly at epoch: 6.3342°
orbit number at epoch: 12767

The dashed part of the orbit path shows where the satellite is in the earth's shadow,  

DLR